Location: Unspecified
(41.5516°N, 88.1098°W)
Time: 22:57:53
(UTC-05:00)

Cosmos 2058 - Visible Passes

Search period start: 17 October 2017 00:00
Search period end: 27 October 2017 00:00
Orbit: 564 x 584 km, 82.5° (Epoch: 17 October)

Date Brightness Start Highest point End Pass type
(mag) Time Alt. Az. Time Alt. Az. Time Alt. Az.
17 Oct 3.5 18:38:45 10° N 18:42:36 34° ENE 18:46:24 10° SE visible
17 Oct 5.8 20:16:25 10° NW 20:19:14 18° W 20:22:02 10° SW visible
18 Oct 3.2 18:41:53 10° N 18:45:56 46° ENE 18:49:56 10° SSE visible
18 Oct 6.2 20:20:22 10° NW 20:22:24 13° W 20:24:26 10° WSW visible
19 Oct 2.9 18:45:05 10° N 18:49:15 63° E 18:53:21 10° SSE visible
20 Oct 2.9 18:48:21 10° N 18:52:33 85° E 18:56:41 10° S visible
21 Oct 3.2 18:51:39 10° NNW 18:55:49 71° W 18:59:56 10° S visible
22 Oct 3.9 18:55:01 10° NNW 18:59:05 52° W 19:03:05 10° S visible
23 Oct 4.6 18:58:26 10° NNW 19:02:19 38° W 19:06:08 10° SSW visible
24 Oct 5.2 19:01:56 10° NNW 19:05:32 29° W 19:09:05 10° SSW visible
25 Oct 6.6 05:51:57 10° E 05:53:08 11° E 05:54:20 10° ENE visible
25 Oct 5.7 19:05:32 10° NW 19:08:43 22° W 19:11:54 10° SW visible
26 Oct 6.3 05:53:56 10° ESE 05:56:17 15° E 05:58:39 10° NE visible
26 Oct 6.2 19:09:16 10° NW 19:11:54 17° W 19:14:31 10° SW visible
